STARLINK-4565 (53562 NORAD) Tracking and Keplerian Element Data

This shows tracking and keplerian element data for the satellite.

Feedback or suggestion? Click here.




ElementValue
Catalog53562
NameSTARLINK-4565
Epoch Orbit130
Epoch Day324.91667824
Epoch Year2022
RAAN62.6658
Inclination53.2151
Eccentricity0.0001361
Argument of Perigee68.4105
Mean Anonmoly295.8058
Mean Motion15.08845222
Decay Rate-0.00025526
L11 53562U 22101AM 22324.91667824 -.00025526 00000+0 -15912-2 0 9994
L22 53562 53.2151 62.6658 0001361 68.4105 295.8058 15.08845222 1306



Live tracking and technical data element details for STARLINK-4565 (NORAD 53562). STARLINK-4565 can be tracked NOW for your location showing map with azimuth and elevation plus other details from your city location.







IsCatalogInMostPopularTable: catalog: 53562, numindb: 4
Update: records affected: 1



GetName: 53562 STARLINK-4565

Hit Count: updated at: Thu, 08 Dec 2022 19:01:09 GMT